Regional Weather Roundup
Issued by NWS

Home | Current Version | Previous Version | Text Only | Print | Product List | Glossary On
Versions: 1 2 3 4 5 6 7 8 9 10 11 12 13 14 15 16 17 18 19 20 21 22 23 24 25 26 27 28 29 30 31 32 33 34 35 36 37 38 39 40 41 42 43 44 45 46 47 48 49 50
000
ASUS43 KDTX 170901
RWRMI
MICHIGAN HOURLY REGIONAL WEATHER ROUNDUP
NATIONAL WEATHER SERVICE DETROIT/PONTIAC MI
500 AM EDT TUE OCT 17 2017

NOTE: "FAIR" INDICATES FEW OR NO CLOUDS BELOW 12,000 FEET WITH NO
SIGNIFICANT WEATHER AND/OR OBSTRUCTION TO VISIBILITY.

MIZ047>049-052>055-059>063-066>070-074>076-081>083-171000-
SOUTHEAST LOWER MICHIGAN

CITY           SKY/WX    TMP DP  RH WIND       PRES   REMARKS
ADRIAN         CLEAR     41  37  86 W6        30.26R
ALMA           CLEAR     42  38  84 S10G17    30.16F
ANN ARBOR      CLEAR     33  33 100 CALM      30.23R
BAD AXE        CLEAR     43  37  80 S10       30.17F
CARO           CLEAR     41  37  84 S7        30.17F
DETROIT CITY   CLEAR     47  39  74 SW8       30.24S
DETROIT        PTCLDY    42  39  89 S6        30.25R
FLINT          CLEAR     46  38  73 SW9       30.21S
GROSSE ILE     CLEAR     49  40  71 SW10      30.24S
HILLSDALE      CLEAR     43  36  75 SW6       30.23S
HOWELL         CLEAR     44  38  82 S3        30.21S

CITY           SKY/WX    TMP DP  RH WIND       PRES   REMARKS
JACKSON        CLEAR     46  37  71 SW8       30.22S
LAMBERTVILLE   CLEAR     45  39  81 S5        30.26R
LANSING        CLEAR     45  37  73 S6        30.21R
LAPEER         FAIR      43  39  86 SW7       30.20S
MASON          CLEAR     43  38  82 CALM      30.22R
MONROE         CLEAR     45  38  76 SW5       30.25R
MT. CLEMENS    CLEAR     43  40  90 SW7       30.21S
PONTIAC        CLEAR     45  40  82 SW3       30.21S
PORT HOPE        N/A     45  37  73 CALM      30.13F
PORT HURON     CLEAR     43  39  87 SW3       30.22S
TRI CITIES     CLEAR     44  39  82 S10       30.17F
MIDLAND        FAIR      41  38  87 CALM      30.14F
TROY           CLEAR     43  39  86 S3        30.25S
SAGINAW HB     CLEAR     43  37  81 S10       30.16F
$$
MIZ043>046-050>051-056>058-064>065-071>073-077>080-171000-
SOUTHWEST LOWER MICHIGAN

CITY           SKY/WX    TMP DP  RH WIND       PRES   REMARKS
BATTLE CREEK   CLEAR     43  39  86 SW8       30.22S
BENTON HARBOR  CLEAR     46  38  73 S6        30.21F
BIG RAPIDS     CLEAR     38  37  94 CALM      30.12F
COLDWATER      CLEAR     44  38  79 SW6       30.24R
FREMONT        FAIR      43  41  95 S3        30.13F
HOLLAND        CLEAR     47  44  90 S8        30.18F
GRAND RAPIDS   CLEAR     48  41  76 S14       30.17F
IONIA          FAIR      45  38  76 S7        30.17F
LUDINGTON      CLEAR     57  46  65 SW15      30.08F
MARSHALL       CLEAR     44  38  79 SW3       30.22S
MOUNT PLEASANT CLEAR     46  38  74 S3        30.13F
MUSKEGON       CLEAR     58  44  60 SW14      30.15S
SOUTH HAVEN    CLEAR     48  40  75 S6        30.20F
$$
MIZ016>042-171000-
NORTHERN LOWER MICHIGAN

CITY           SKY/WX    TMP DP  RH WIND       PRES   REMARKS
ALPENA         CLOUDY    46  41  82 SW9       30.06F
BEAVER ISLAND  CLOUDY    59  46  63 SW15G26   29.95F
BELLAIRE       CLOUDY    49  41  72 S3        30.03F
CADILLAC       CLEAR     45  39  81 SW9       30.07F
CHARLEVOIX     PTCLDY    50  43  76 S12       30.02F
FRANKFORT      CLOUDY    55  46  70 S8        30.03F
GAYLORD        CLOUDY    46  38  73 SW14      30.03F
GRAYLING       CLOUDY    45  38  77 SW5       30.07F
HARBOR SPRINGS CLOUDY    48  40  74 S7        30.01F
HOUGHTON LAKE  CLEAR     45  39  79 S12       30.09F
MANISTEE       CLOUDY    44  41  89 E3        30.06F
OSCODA         CLEAR     43  39  86 SW9       30.10F
PELLSTON       PTCLDY    52  41  66 SW10G17   29.98F
ROGERS CITY    MOCLDY    44  39  84 S14       30.02F
TRAVERSE CITY  CLOUDY    53  42  66 SW9G17    30.02F
$$
MIZ007>008-015-171000-
EASTERN UPPER MICHIGAN

CITY           SKY/WX    TMP DP  RH WIND       PRES   REMARKS
KINROSS        CLOUDY    52  46  80 VRB7      29.93F
MACKINAC ISLAN MOCLDY    52  44  74 SW12      29.96F
NEWBERRY       CLOUDY    53  44  72 SW12G18   29.91S
S. S. MARIE    CLOUDY    46  43  89 CALM      29.91F
MUNISING         N/A     50  38  63 S12       29.88F
$$
MIZ004>006-011>014-085-171000-
CENTRAL UPPER MICHIGAN

CITY           SKY/WX    TMP DP  RH WIND       PRES   REMARKS
MANISTIQUE     CLOUDY    54  44  71 SW7       29.92F
ESCANABA       CLEAR     48  38  68 SW12      29.93F
MENOMINEE      PTCLDY    49  37  63 SW7       29.97F
SAWYER-GWINN   CLEAR     42  35  78 SW6       29.91S
$$
MIZ001>003-009>011-084-171000-
WESTERN UPPER MICHIGAN

CITY           SKY/WX    TMP DP  RH WIND       PRES   REMARKS
IRON MOUNTAIN  CLEAR     50  35  56 W5        29.92F
HOUGHTON       CLEAR     52  37  56 W13       29.85R
COPPER HARBOR    N/A     57  39  51 VRB7      29.81S
IRONWOOD       CLOUDY    47  37  68 SW7       29.93R
$$

ABBREVIATIONS USED IN REMARKS
   TC - TEMPERATURE IN CELSIUS
  WCI - WIND CHILL INDEX
   HX - HEAT INDEX
  VSB - VISIBILITY





USA.gov is the U.S. government's official web portal to all federal, state and local government web resources and services.